AAL1958 SABE-SAZB

Flight info

Callsign AAL1958
Flight time 0h 58m
Altitude 36000
Route PTA8 GBE XODIK MOXAM MOXA2U
Aircraft B738/M-VGDW/C

Departure

Time 2026-05-06 23:21
Airport Aeroparque Jorge Newbery (SABE)

Arrival

Time 2026-05-07 00:19
Airport Comandante Espora Airport (SAZB)
Time Latitude Longitude Altitude Speed Heading
2026-05-06 23:07 -34.55706 -58.41621 27 ft 0 kts 356°
2026-05-06 23:16 -34.55714 -58.41620 27 ft 2 kts 338°
2026-05-06 23:16 -34.55726 -58.41609 27 ft 2 kts 302°
2026-05-06 23:16 -34.55732 -58.41592 27 ft 2 kts 296°
2026-05-06 23:16 -34.55739 -58.41576 27 ft 2 kts 298°
2026-05-06 23:17 -34.55744 -58.41566 27 ft 0 kts 297°
2026-05-06 23:18 -34.55742 -58.41575 27 ft 6 kts 278°
2026-05-06 23:19 -34.55767 -58.41639 27 ft 13 kts 259°
2026-05-06 23:19 -34.55711 -58.41804 27 ft 25 kts 301°
2026-05-06 23:19 -34.55601 -58.41947 27 ft 20 kts 308°
2026-05-06 23:19 -34.55545 -58.42094 27 ft 19 kts 298°
2026-05-06 23:20 -34.55460 -58.42257 27 ft 24 kts 287°
2026-05-06 23:20 -34.55381 -58.42371 27 ft 6 kts 308°
2026-05-06 23:20 -34.55378 -58.42377 27 ft 0 kts 303°
2026-05-06 23:20 -34.55370 -58.42397 27 ft 9 kts 293°
2026-05-06 23:21 -34.55389 -58.42515 27 ft 13 kts 175°
2026-05-06 23:21 -34.55458 -58.42407 27 ft 30 kts 122°
2026-05-06 23:21 -34.55777 -58.41838 28 ft 129 kts 122°
2026-05-06 23:21 -34.56347 -58.40769 648 ft 160 kts 121°
2026-05-06 23:22 -34.56924 -58.39581 1598 ft 176 kts 112°
2026-05-06 23:22 -34.57040 -58.38168 2600 ft 180 kts 69°
2026-05-06 23:22 -34.56182 -58.37021 3266 ft 200 kts 23°
2026-05-06 23:22 -34.54831 -58.36489 4025 ft 217 kts 19°
2026-05-06 23:23 -34.53450 -58.35567 4632 ft 242 kts 37°
2026-05-06 23:23 -34.52303 -58.33997 4977 ft 254 kts 61°
2026-05-06 23:23 -34.51903 -58.31881 5006 ft 272 kts 91°
2026-05-06 23:23 -34.52345 -58.29626 5007 ft 275 kts 108°
2026-05-06 23:24 -34.52940 -58.27448 5003 ft 282 kts 111°
2026-05-06 23:24 -34.54150 -58.25430 5696 ft 309 kts 142°
2026-05-06 23:24 -34.56016 -58.24454 7358 ft 296 kts 171°
2026-05-06 23:24 -34.58030 -58.24557 8633 ft 296 kts 192°
2026-05-06 23:25 -34.60005 -58.25072 9944 ft 295 kts 191°
2026-05-06 23:25 -34.62043 -58.25494 10831 ft 308 kts 189°
2026-05-06 23:25 -34.64244 -58.25917 11328 ft 333 kts 189°
2026-05-06 23:25 -34.66565 -58.26354 12033 ft 348 kts 189°
2026-05-06 23:26 -34.68980 -58.26799 12918 ft 356 kts 189°
2026-05-06 23:26 -34.71413 -58.27243 13836 ft 362 kts 189°
2026-05-06 23:26 -34.73894 -58.27696 14754 ft 366 kts 190°
2026-05-06 23:26 -34.76431 -58.28159 15639 ft 365 kts 190°
2026-05-06 23:27 -34.78940 -58.28614 15925 ft 376 kts 191°
2026-05-06 23:27 -34.81515 -58.29091 16925 ft 376 kts 191°
2026-05-06 23:27 -34.84094 -58.29558 17661 ft 384 kts 191°
2026-05-06 23:27 -34.86737 -58.30042 18525 ft 387 kts 192°
2026-05-06 23:28 -34.89387 -58.30525 19331 ft 391 kts 192°
2026-05-06 23:28 -34.92068 -58.31013 20194 ft 392 kts 192°
2026-05-06 23:28 -34.94736 -58.31498 20971 ft 395 kts 192°
2026-05-06 23:28 -34.97474 -58.31997 21719 ft 398 kts 191°
2026-05-06 23:29 -35.00196 -58.32495 22416 ft 402 kts 191°
2026-05-06 23:29 -35.02953 -58.33001 23067 ft 406 kts 191°
2026-05-06 23:29 -35.05747 -58.33514 23693 ft 409 kts 191°
2026-05-06 23:29 -35.08576 -58.34032 24284 ft 414 kts 191°
2026-05-06 23:30 -35.11404 -58.34551 24855 ft 417 kts 191°
2026-05-06 23:30 -35.14281 -58.35080 25407 ft 421 kts 191°
2026-05-06 23:30 -35.17203 -58.35619 25936 ft 425 kts 191°
2026-05-06 23:30 -35.20105 -58.36154 26453 ft 429 kts 192°
2026-05-06 23:31 -35.23050 -58.36697 26930 ft 432 kts 192°
2026-05-06 23:31 -35.26025 -58.37247 27416 ft 436 kts 192°
2026-05-06 23:31 -35.29046 -58.37806 27873 ft 439 kts 192°
2026-05-06 23:31 -35.32051 -58.38361 28315 ft 443 kts 192°
2026-05-06 23:32 -35.35091 -58.38924 28730 ft 446 kts 192°
2026-05-06 23:32 -35.38132 -58.39489 29148 ft 449 kts 192°
2026-05-06 23:32 -35.41227 -58.40064 29538 ft 452 kts 192°
2026-05-06 23:32 -35.44361 -58.40647 29927 ft 456 kts 192°
2026-05-06 23:33 -35.47466 -58.41225 30311 ft 458 kts 192°
2026-05-06 23:33 -35.50606 -58.41809 30737 ft 459 kts 192°
2026-05-06 23:33 -35.53779 -58.42400 31155 ft 461 kts 192°
2026-05-06 23:33 -35.56918 -58.42985 31594 ft 461 kts 192°
2026-05-06 23:34 -35.60076 -58.43575 32018 ft 462 kts 193°
2026-05-06 23:34 -35.63234 -58.44166 32453 ft 462 kts 193°
2026-05-06 23:34 -35.66417 -58.44762 32888 ft 462 kts 193°
2026-05-06 23:34 -35.69537 -58.45434 33295 ft 459 kts 198°
2026-05-06 23:35 -35.72583 -58.46515 33738 ft 456 kts 201°
2026-05-06 23:35 -35.75600 -58.47733 34149 ft 454 kts 204°
2026-05-06 23:35 -35.78448 -58.49260 34563 ft 448 kts 212°
2026-05-06 23:35 -35.81127 -58.51188 35011 ft 444 kts 216°
2026-05-06 23:36 -35.83740 -58.53180 35427 ft 444 kts 216°
2026-05-06 23:36 -35.86340 -58.55136 35623 ft 443 kts 215°
2026-05-06 23:36 -35.88977 -58.57124 35617 ft 440 kts 216°
2026-05-06 23:37 -35.94144 -58.61061 35617 ft 440 kts 216°
2026-05-06 23:37 -35.99347 -58.65055 35616 ft 446 kts 216°
2026-05-06 23:38 -36.04615 -58.69112 35618 ft 446 kts 216°
2026-05-06 23:38 -36.09833 -58.73143 35628 ft 445 kts 216°
2026-05-06 23:39 -36.15060 -58.77190 35637 ft 445 kts 216°
2026-05-06 23:39 -36.20294 -58.81253 35641 ft 445 kts 216°
2026-05-06 23:40 -36.25523 -58.85320 35642 ft 446 kts 216°
2026-05-06 23:40 -36.30774 -58.89412 35641 ft 447 kts 216°
2026-05-06 23:41 -36.36009 -58.93499 35642 ft 448 kts 216°
2026-05-06 23:41 -36.41262 -58.97606 35641 ft 449 kts 216°
2026-05-06 23:42 -36.46556 -59.01752 35642 ft 450 kts 216°
2026-05-06 23:42 -36.51837 -59.05896 35642 ft 451 kts 216°
2026-05-06 23:43 -36.57100 -59.10030 35641 ft 451 kts 216°
2026-05-06 23:43 -36.62383 -59.14187 35641 ft 451 kts 216°
2026-05-06 23:44 -36.67690 -59.18368 35641 ft 451 kts 216°
2026-05-06 23:44 -36.72970 -59.22537 35641 ft 451 kts 216°
2026-05-06 23:45 -36.78234 -59.26699 35641 ft 451 kts 216°
2026-05-06 23:45 -36.83509 -59.30875 35641 ft 451 kts 216°
2026-05-06 23:46 -36.88776 -59.35053 35641 ft 451 kts 216°
2026-05-06 23:46 -36.94078 -59.39265 35641 ft 451 kts 216°
2026-05-06 23:47 -36.99342 -59.43453 35641 ft 450 kts 216°
2026-05-06 23:47 -37.04585 -59.47633 35641 ft 449 kts 216°
2026-05-06 23:48 -37.09848 -59.51836 35641 ft 449 kts 216°
2026-05-06 23:48 -37.15104 -59.56040 35642 ft 448 kts 215°
2026-05-06 23:49 -37.20312 -59.60267 35642 ft 448 kts 217°
2026-05-06 23:49 -37.25449 -59.64632 35642 ft 448 kts 217°
2026-05-06 23:50 -37.30605 -59.69008 35641 ft 448 kts 217°
2026-05-06 23:50 -37.38311 -59.75552 35641 ft 448 kts 217°
2026-05-06 23:51 -37.43456 -59.79927 35642 ft 448 kts 217°
2026-05-06 23:51 -37.48588 -59.84298 35642 ft 448 kts 217°
2026-05-06 23:52 -37.53738 -59.88690 35642 ft 448 kts 217°
2026-05-06 23:52 -37.58880 -59.93083 35642 ft 448 kts 217°
2026-05-06 23:53 -37.64013 -59.97475 35642 ft 448 kts 217°
2026-05-06 23:53 -37.69133 -60.01864 35642 ft 448 kts 217°
2026-05-06 23:54 -37.74275 -60.06278 35641 ft 448 kts 217°
2026-05-06 23:54 -37.79433 -60.10714 35641 ft 448 kts 217°
2026-05-06 23:55 -37.84540 -60.15113 35641 ft 448 kts 217°
2026-05-06 23:55 -37.89692 -60.19559 35641 ft 448 kts 217°
2026-05-06 23:56 -37.94797 -60.23972 35641 ft 448 kts 217°
2026-05-06 23:56 -37.99494 -60.28987 35633 ft 439 kts 237°
2026-05-06 23:57 -38.00866 -60.32386 35641 ft 434 kts 251°
2026-05-06 23:57 -38.01819 -60.36048 35198 ft 441 kts 254°
2026-05-06 23:57 -38.02766 -60.39722 34541 ft 439 kts 252°
2026-05-06 23:57 -38.03771 -60.43322 33892 ft 434 kts 251°
2026-05-06 23:58 -38.04802 -60.46907 33239 ft 431 kts 251°
2026-05-06 23:58 -38.05839 -60.50471 32592 ft 434 kts 251°
2026-05-06 23:58 -38.06895 -60.54060 31946 ft 438 kts 250°
2026-05-06 23:58 -38.07970 -60.57679 31296 ft 441 kts 250°
2026-05-06 23:59 -38.09053 -60.61305 30648 ft 443 kts 250°
2026-05-06 23:59 -38.10152 -60.64968 29992 ft 443 kts 250°
2026-05-06 23:59 -38.11242 -60.68599 29292 ft 445 kts 250°
2026-05-06 23:59 -38.12342 -60.72269 28540 ft 446 kts 250°
2026-05-07 00:00 -38.13446 -60.75948 27789 ft 448 kts 250°
2026-05-07 00:00 -38.14544 -60.79604 27043 ft 449 kts 250°
2026-05-07 00:00 -38.15665 -60.83342 26283 ft 450 kts 250°
2026-05-07 00:00 -38.16773 -60.87038 25539 ft 455 kts 250°
2026-05-07 00:01 -38.17896 -60.90787 24788 ft 456 kts 250°
2026-05-07 00:01 -38.19013 -60.94523 24032 ft 451 kts 250°
2026-05-07 00:01 -38.20118 -60.98216 23278 ft 445 kts 250°
2026-05-07 00:01 -38.21196 -61.01825 22535 ft 441 kts 250°
2026-05-07 00:02 -38.22290 -61.05484 21777 ft 441 kts 250°
2026-05-07 00:02 -38.22855 -61.07374 21388 ft 441 kts 250°
2026-05-07 00:02 -38.23923 -61.10959 20649 ft 440 kts 250°
2026-05-07 00:02 -38.25006 -61.14601 19893 ft 438 kts 250°
2026-05-07 00:03 -38.26070 -61.18179 19146 ft 434 kts 249°
2026-05-07 00:03 -38.27134 -61.21764 18392 ft 431 kts 249°
2026-05-07 00:03 -38.28184 -61.25314 17640 ft 427 kts 249°
2026-05-07 00:03 -38.29218 -61.28814 16891 ft 422 kts 249°
2026-05-07 00:04 -38.30235 -61.32255 16140 ft 413 kts 249°
2026-05-07 00:04 -38.31224 -61.35604 15389 ft 400 kts 249°
2026-05-07 00:04 -38.32181 -61.38843 14641 ft 387 kts 249°
2026-05-07 00:04 -38.33105 -61.41976 13894 ft 376 kts 249°
2026-05-07 00:05 -38.34001 -61.45016 13141 ft 361 kts 249°
2026-05-07 00:05 -38.34861 -61.47937 12386 ft 345 kts 249°
2026-05-07 00:05 -38.35677 -61.50717 11637 ft 329 kts 249°
2026-05-07 00:05 -38.36453 -61.53365 10891 ft 316 kts 249°
2026-05-07 00:06 -38.37210 -61.55952 10136 ft 306 kts 249°
2026-05-07 00:06 -38.37939 -61.58443 9388 ft 298 kts 250°
2026-05-07 00:06 -38.38646 -61.60864 8643 ft 292 kts 250°
2026-05-07 00:06 -38.39348 -61.63267 7888 ft 287 kts 250°
2026-05-07 00:07 -38.40030 -61.65606 7143 ft 283 kts 251°
2026-05-07 00:07 -38.40706 -61.67924 6394 ft 279 kts 251°
2026-05-07 00:07 -38.41380 -61.70233 5639 ft 276 kts 251°
2026-05-07 00:07 -38.42035 -61.72485 4922 ft 273 kts 251°
2026-05-07 00:08 -38.42691 -61.74737 4219 ft 270 kts 251°
2026-05-07 00:08 -38.43336 -61.76953 3519 ft 267 kts 251°
2026-05-07 00:08 -38.43975 -61.79156 2869 ft 262 kts 251°
2026-05-07 00:08 -38.44575 -61.81224 2731 ft 238 kts 251°
2026-05-07 00:09 -38.45113 -61.83091 2771 ft 211 kts 251°
2026-05-07 00:09 -38.45615 -61.84843 2752 ft 212 kts 251°
2026-05-07 00:09 -38.46119 -61.86597 2746 ft 209 kts 251°
2026-05-07 00:09 -38.46606 -61.88279 2738 ft 199 kts 251°
2026-05-07 00:10 -38.47077 -61.89912 2742 ft 194 kts 251°
2026-05-07 00:10 -38.47547 -61.91539 2747 ft 194 kts 251°
2026-05-07 00:10 -38.48009 -61.93138 2750 ft 194 kts 251°
2026-05-07 00:10 -38.48478 -61.94757 2750 ft 194 kts 251°
2026-05-07 00:11 -38.48943 -61.96366 2750 ft 194 kts 251°
2026-05-07 00:11 -38.49407 -61.97973 2750 ft 194 kts 251°
2026-05-07 00:11 -38.49877 -61.99600 2750 ft 194 kts 251°
2026-05-07 00:11 -38.50340 -62.01204 2750 ft 194 kts 251°
2026-05-07 00:12 -38.50804 -62.02811 2750 ft 194 kts 251°
2026-05-07 00:12 -38.51273 -62.04439 2750 ft 194 kts 251°
2026-05-07 00:12 -38.51740 -62.06057 2750 ft 194 kts 251°
2026-05-07 00:12 -38.52198 -62.07652 2750 ft 193 kts 251°
2026-05-07 00:13 -38.52662 -62.09263 2768 ft 190 kts 251°
2026-05-07 00:13 -38.53122 -62.10863 2758 ft 193 kts 252°
2026-05-07 00:13 -38.53531 -62.12510 2663 ft 195 kts 255°
2026-05-07 00:13 -38.53910 -62.14147 2479 ft 187 kts 255°
2026-05-07 00:14 -38.54251 -62.15616 2272 ft 161 kts 256°
2026-05-07 00:14 -38.54549 -62.16917 2082 ft 148 kts 256°
2026-05-07 00:14 -38.54835 -62.18169 1953 ft 144 kts 256°
2026-05-07 00:14 -38.55191 -62.19382 1773 ft 157 kts 240°
2026-05-07 00:15 -38.56055 -62.20273 1452 ft 164 kts 191°
2026-05-07 00:15 -38.57064 -62.20202 1461 ft 130 kts 165°
2026-05-07 00:15 -38.57939 -62.19731 1359 ft 142 kts 151°
2026-05-07 00:15 -38.58864 -62.19293 1394 ft 145 kts 163°
2026-05-07 00:16 -38.59860 -62.19278 1467 ft 144 kts 184°
2026-05-07 00:16 -38.60871 -62.19410 1422 ft 149 kts 182°
2026-05-07 00:16 -38.61883 -62.19359 1528 ft 140 kts 171°
2026-05-07 00:16 -38.62846 -62.19140 1554 ft 147 kts 164°
2026-05-07 00:17 -38.63858 -62.18766 1586 ft 155 kts 159°
2026-05-07 00:17 -38.64845 -62.18271 1705 ft 146 kts 143°
2026-05-07 00:17 -38.65709 -62.17618 1568 ft 142 kts 150°
2026-05-07 00:17 -38.66639 -62.17212 1146 ft 140 kts 155°
2026-05-07 00:18 -38.67553 -62.17007 966 ft 131 kts 169°
2026-05-07 00:18 -38.68460 -62.16974 800 ft 128 kts 163°
2026-05-07 00:18 -38.69325 -62.16736 688 ft 128 kts 153°
2026-05-07 00:18 -38.70164 -62.16339 657 ft 129 kts 151°
2026-05-07 00:19 -38.71069 -62.15995 489 ft 136 kts 153°
2026-05-07 00:19 -38.71933 -62.15636 266 ft 125 kts 158°
2026-05-07 00:19 -38.72616 -62.15370 250 ft 68 kts 160°
2026-05-07 00:19 -38.72881 -62.15355 245 ft 26 kts 217°
2026-05-07 00:20 -38.72959 -62.15457 246 ft 0 kts 222°
2026-05-07 00:20 -38.72964 -62.15463 246 ft 1 kts 219°
2026-05-07 00:20 -38.72973 -62.15470 246 ft 2 kts 210°